Torna al catalogo

KUIPER-00170

AttivoComunicazioniLEO
NORAD 65783·PAYLOAD·🇺🇸 United States

Lanciato Sep 25, 2025 da Cape Canaveral Space Force Station

Loading…

Prossimi Passaggi (prossime 24 ore)

TLE

AggiornatoSource: CelesTrak SupGP

Epoca: Sep 14, 2026, 21:13 UTC

1 65783C 25217X   26257.88467593  .00001818  00000+0  23810-3 0  2579
2 65783  51.8977 281.4483 0000529  73.0359 346.6888 14.79914050    15

Traccia KUIPER-00170 in tempo reale con AllMySat

Download on the App Store